User: anonymous   Login
Location: BAF
(53.9483°N, 27.7497°E)
Time: 22:51:27
(UTC+02:00)
Language:

ISS - Orbit

View from above orbital plane
View from above orbital plane
View from above satellite
View from above satellite

Ground track
Ground track

The orbit data is extracted from the following two-line orbital elements,

1 25544U 98067A   21016.53570568  .00016717  00000-0  10270-3 0  9039
2 25544  51.6421  12.8212 0000319 299.0089  61.1029 15.49317968 25084
Epoch (UTC): 16 January 2021 12:51:24
Eccentricity: 0.0000319
inclination: 51.6421°
perigee height: 418 km
apogee height: 419 km
right ascension of ascending node: 12.8212°
argument of perigee: 299.0089°
revolutions per day: 15.49317968
mean anomaly at epoch: 61.1029°
orbit number at epoch: 2508

The dashed part of the orbit path shows where the satellite is in the earth's shadow,  

DLR